Regional Weather Roundup
Issued by NWS

Home | Current Version | Previous Version | Text Only | Print | Product List | Glossary On
Versions: 1 2 3 4 5 6 7 8 9 10 11 12 13 14 15 16 17 18 19 20 21 22 23 24 25 26 27
000
ASUS44 KBMX 101310
RWRAL

ALABAMA REGIONAL WEATHER ROUNDUP
NATIONAL WEATHER SERVICE BIRMINGHAM AL
700 AM CST SAT DEC 10 2016

NOTE: "FAIR" INDICATES FEW OR NO CLOUDS BELOW 12,000 FEET
WITH NO SIGNIFICANT WEATHER AND/OR OBSTRUCTIONS TO VISIBILITY.

THE REMARK "TC" DENOTES TEMPERATURE IN DEGREES CELSIUS.

ALZ001>011-014-016>018-020-101400-
NORTH ALABAMA

CITY           SKY/WX    TMP DP  RH WIND       PRES   REMARKS
MUSCLE SHOALS  CLEAR     22  18  85 NE3       30.60S
HUNTSVILLE     CLEAR     25  18  74 CALM      30.57R
DECATUR        CLEAR     22  19  89 NE3       30.59R
HALEYVILLE     FAIR      19  18  95 CALM      30.57R
GADSDEN        PTCLDY    22  19  89 CALM      30.58R
$$

ALZ012-013-022-023-030>036-040>044-101400-
WEST CENTRAL ALABAMA

CITY           SKY/WX    TMP DP  RH WIND       PRES   REMARKS
TUSCALOOSA     CLEAR     25  21  85 N7        30.59S WCI  17
$$

ALZ015-024>027-033>036-040>044-101400-
CENTRAL ALABAMA

CITY           SKY/WX    TMP DP  RH WIND       PRES   REMARKS
BIRMINGHAM     CLEAR     23  20  88 CALM      30.58R
MONTGOMERY     CLOUDY    28  19  69 NW5       30.57R WCI  23
SHELBY CO ARPT CLEAR     25  21  85 CALM      30.55R
MAXWELL AFB    CLEAR     29  23  78 N7        30.56R WCI  22
GREENVILLE     FAIR      27  20  75 N3        30.53R
$$

ALZ019-021-028-029-037-038-045>048-101400-
EAST CENTRAL ALABAMA

CITY           SKY/WX    TMP DP  RH WIND       PRES   REMARKS
ANNISTON       CLEAR     23  20  88 CALM      30.56R
ALEXANDER CITY CLEAR     30  23  75 CALM      30.54R
AUBURN         CLEAR     28  19  69 N8        30.52R WCI  20
$$

ALZ051>064-101400-
SOUTHWEST ALABAMA

CITY           SKY/WX    TMP DP  RH WIND       PRES   REMARKS
MOBILE         CLEAR     30  21  69 NE6       30.53S WCI  24
BROOKLEY FIELD CLEAR     32  26  78 N8        30.55S WCI  25
EVERGREEN      CLOUDY    27  21  78 N5        30.54R WCI  22
$$

ALZ049-050-065>069-101400-
SOUTHEAST ALABAMA

CITY           SKY/WX    TMP DP  RH WIND       PRES   REMARKS
DOTHAN         PTCLDY    30  24  78 NE7       30.53S WCI  23
OZARK          PTCLDY    29  20  69 N6        30.50S WCI  23
TROY           CLOUDY    25  22  88 CALM      30.53R
EUFAULA        FAIR      29  22  75 CALM      30.51S
$$




USA.gov is the U.S. government's official web portal to all federal, state and local government web resources and services.